Location: Autingues
(50.8400°N, 1.9737°E)
Time: 15:36:47
(UTC+00:00)

CZ-4B R/B - Pass Details

Date: 15 May 2026
Orbit: 807 x 881 km, 98.9° (Epoch: 10 June)

Event Time Altitude Azimuth Distance (km) Brightness Sun altitude
Rises 20:05:44 0° 164° (SSE) 3,466 5.9 -4.8°
Reaches altitude 10° 20:08:08 10° 165° (SSE) 2,529 5.2 -5.1°
Maximum altitude 20:13:47 84° 254° (WSW) 884 3.4 -5.8°
Drops below altitude 10° 20:19:25 10° 344° (NNW) 2,515 6.7 -6.5°
Sets 20:21:47 0° 345° (NNW) 3,446 7.5 -6.7°
